Date,TemperatureHighF,TemperatureAvgF,TemperatureLowF,DewpointHighF,DewpointAvgF,DewpointLowF,HumidityHigh,HumidityAvg,HumidityLow,PressureMaxIn,PressureMinIn,WindSpeedMaxMPH,WindSpeedAvgMPH,GustSpeedMaxMPH,PrecipitationSumIn
2013-1-1,29.5,23.0,12.4,29.2,20.4,9.2,99,90,73,29.80,29.66,5,3,9,0.00
2013-1-2,27.5,13.9,4.5,14.5,7.6,2.9,94,77,50,29.87,29.78,9,3,12,0.00
2013-1-3,31.1,23.7,13.5,28.5,19.1,5.9,93,82,70,29.92,29.77,16,8,20,0.00
2013-1-4,30.6,22.3,14.4,24.8,17.8,11.2,94,83,73,29.95,29.88,17,9,22,0.00
2013-1-5,36.5,28.4,17.2,32.9,25.7,17.0,99,90,77,29.91,29.70,14,6,19,0.00
2013-1-6,36.5,30.3,22.5,34.0,27.8,21.5,97,90,83,29.97,29.60,14,7,22,0.00
2013-1-7,35.8,23.9,11.8,29.1,21.2,11.4,99,90,74,30.03,29.79,19,5,24,0.00
2013-1-8,45.7,32.5,20.5,34.3,27.7,19.3,99,83,58,29.85,29.76,10,4,15,0.00
2013-1-9,50.7,40.9,28.8,41.2,35.3,24.9,97,81,64,30.11,29.74,17,7,23,0.00
2013-1-10,48.7,36.1,26.6,48.5,32.8,23.6,99,88,72,30.11,29.60,16,6,22,0.00
2013-1-11,59.2,53.4,46.0,57.1,51.8,43.1,99,94,80,29.61,29.36,23,10,29,0.00
2013-1-12,62.2,53.8,41.9,57.3,51.9,41.6,99,94,76,29.59,29.36,18,7,27,0.00
2013-1-13,42.3,31.6,19.2,41.8,31.2,17.3,99,98,92,29.85,29.36,14,2,21,0.00
2013-1-14,25.7,19.1,14.9,21.3,16.4,12.5,98,89,75,30.07,29.84,0,0,0,0.00
2013-1-15,29.5,23.3,16.0,24.4,20.5,15.8,99,89,74,30.02,29.72,0,0,0,0.00
2013-1-16,36.0,29.0,19.0,27.8,25.0,18.8,99,86,64,29.72,29.56,15,4,21,0.00
2013-1-17,40.1,30.9,20.3,34.5,25.6,16.2,99,82,60,30.03,29.67,10,4,15,0.00
2013-1-18,39.9,30.1,18.1,28.9,22.7,15.3,95,76,55,30.07,29.68,27,11,36,0.00
2013-1-19,52.2,42.7,36.5,37.4,32.3,28.3,79,67,53,29.72,29.46,24,16,34,0.00
2013-1-20,41.9,25.8,19.6,35.8,15.8,9.7,81,66,52,29.90,29.53,16,6,30,0.00
2013-1-21,20.5,14.8,7.7,15.4,6.8,-1.9,92,70,49,29.89,29.76,15,7,21,0.00
2013-1-22,18.1,10.7,3.9,3.2,0.5,-1.1,80,64,46,30.00,29.88,14,5,20,0.00
2013-1-23,23.4,18.1,7.7,16.4,7.8,-5.0,82,64,48,29.96,29.71,13,4,18,0.00
2013-1-24,24.4,18.5,8.8,17.8,7.9,2.0,89,65,40,30.20,29.80,11,5,17,0.00
2013-1-25,29.1,22.7,16.7,23.1,16.2,6.3,98,77,51,29.97,29.63,14,6,21,0.00
2013-1-26,36.9,23.3,10.8,20.2,16.5,9.7,99,77,45,30.02,29.72,6,2,10,0.00
2013-1-27,38.5,29.0,19.0,38.2,25.5,16.3,99,87,71,30.01,29.63,17,6,24,0.00
2013-1-28,63.5,48.9,38.5,63.2,48.7,38.2,99,99,99,29.65,29.54,21,11,29,0.00
2013-1-29,64.8,58.5,54.3,63.2,58.1,52.8,99,99,92,29.55,28.93,22,13,33,0.00
2013-1-30,65.3,44.1,25.7,63.9,43.6,23.7,99,98,89,29.26,28.89,28,11,37,0.00
2013-1-31,25.7,21.0,9.0,24.0,16.7,3.3,99,83,71,29.76,29.26,21,11,31,0.00
2013-2-1,19.8,11.6,4.5,13.1,5.4,-0.3,89,76,64,30.01,29.76,17,8,21,0.00
2013-2-2,28.6,22.3,14.2,26.9,20.4,9.5,99,92,78,29.85,29.59,15,7,21,0.00
2013-2-3,27.1,19.4,9.3,22.8,15.8,6.5,97,86,71,29.70,29.58,11,6,18,0.00
2013-2-4,42.3,30.0,22.6,33.8,25.0,17.9,94,82,69,29.69,29.39,13,5,20,0.00
2013-2-5,36.3,29.6,20.3,35.2,27.9,20.1,99,93,79,29.67,29.43,17,5,21,0.00
2013-2-6,40.5,32.9,28.8,32.2,28.2,22.8,97,83,66,29.87,29.66,11,4,16,0.00
2013-2-7,55.6,41.1,30.4,44.2,36.2,29.8,99,85,56,29.78,29.43,11,5,16,0.00
2013-2-8,36.0,32.4,29.7,35.7,31.9,29.2,99,98,93,29.97,29.47,13,6,19,0.00
2013-2-9,44.1,34.2,25.0,32.5,28.5,23.7,99,81,61,30.01,29.73,13,4,17,0.00
2013-2-10,51.6,42.5,31.5,51.3,40.1,26.5,99,91,70,29.75,29.27,21,9,32,0.00
2013-2-11,51.6,38.1,30.2,51.3,32.4,27.2,99,80,69,29.67,29.27,29,14,43,0.00
2013-2-12,41.2,30.9,22.8,33.6,28.3,22.6,99,90,73,29.75,29.55,12,3,16,0.00
2013-2-13,48.6,35.3,23.9,34.1,30.1,23.7,99,84,54,29.56,29.37,14,4,19,0.00
2013-2-14,49.5,38.4,32.0,40.5,34.9,29.5,99,88,67,29.61,29.39,23,8,32,0.00
2013-2-15,37.9,31.3,23.4,34.6,27.7,18.7,99,88,54,29.79,29.59,12,3,17,0.00
2013-2-16,25.7,22.1,17.6,21.9,15.5,10.6,89,76,56,29.76,29.72,11,4,15,0.00
2013-2-17,37.9,22.8,7.0,18.8,11.1,4.0,91,64,33,29.84,29.70,11,3,14,0.00
2013-2-18,56.1,42.2,27.0,52.1,34.7,18.1,99,76,61,29.70,29.13,29,13,42,0.00
2013-2-19,46.4,24.9,20.1,46.1,20.5,12.3,99,83,71,29.76,29.15,27,14,36,0.00
2013-2-20,28.4,20.7,15.4,18.8,14.1,8.2,88,76,57,29.94,29.76,13,5,19,0.00
2013-2-21,32.2,26.0,14.0,28.5,22.3,11.4,99,86,75,29.95,29.58,25,10,33,0.00
2013-2-22,36.5,33.0,28.2,36.2,32.5,26.8,99,98,87,29.60,29.44,17,6,22,0.00
2013-2-23,34.2,27.9,22.5,27.3,24.7,22.0,99,88,72,29.61,29.55,14,5,20,0.00
2013-2-24,43.9,29.8,18.5,30.6,24.9,18.3,99,84,55,29.75,29.60,5,1,10,0.00
2013-2-25,44.8,34.6,23.5,35.5,29.8,23.2,99,84,62,29.76,29.48,15,7,22,0.00
2013-2-26,41.2,34.5,32.5,39.8,33.3,29.0,99,95,79,29.49,29.01,24,10,33,0.00
2013-2-27,39.0,33.4,32.2,35.7,33.1,30.1,99,99,99,29.31,29.08,18,11,23,0.00
2013-2-28,37.8,34.0,32.0,36.5,33.4,31.6,99,98,92,29.62,29.30,11,5,17,0.00
2013-3-1,34.2,31.4,28.9,33.4,30.4,26.7,99,96,88,29.71,29.59,11,4,16,0.00
2013-3-2,34.0,28.9,26.6,29.9,26.0,21.9,99,89,72,29.75,29.68,10,5,14,0.00
2013-3-3,40.3,27.5,18.0,25.6,21.5,15.8,99,80,51,29.75,29.67,9,2,12,0.00
2013-3-4,39.4,30.0,19.4,33.2,26.3,17.5,99,87,61,29.73,29.55,14,6,18,0.00
2013-3-5,37.6,34.9,33.8,35.9,33.7,32.1,99,95,89,29.58,29.30,14,8,19,0.00
2013-3-6,32.9,29.2,28.6,31.6,28.9,28.3,99,99,95,29.89,29.84,5,3,8,0.00
2013-3-7,47.3,32.9,26.8,32.7,28.2,23.5,99,84,49,30.01,29.88,5,1,8,0.00
2013-3-8,47.5,31.7,17.2,33.1,26.7,17.0,99,83,52,30.09,29.93,9,3,12,0.00
2013-3-9,48.6,40.6,31.3,41.4,34.9,28.2,91,81,66,29.94,29.52,13,6,17,0.00
2013-3-10,67.5,56.7,45.7,52.3,45.3,37.6,92,67,50,29.52,29.31,26,8,32,0.00
2013-3-11,55.9,42.6,33.6,52.1,42.3,33.4,99,99,93,29.48,29.24,24,11,31,0.00
2013-3-12,44.1,35.2,30.9,34.0,30.7,26.5,99,85,57,29.65,29.47,23,9,31,0.00
2013-3-13,36.0,29.1,25.0,28.6,23.8,20.5,99,81,58,29.95,29.64,13,7,20,0.00
2013-3-14,42.4,31.2,21.7,34.1,26.3,18.4,99,84,50,29.95,29.74,14,6,17,0.00
2013-3-15,53.4,39.6,26.6,43.9,36.2,26.4,99,89,65,29.75,29.34,11,4,15,0.00
2013-3-16,45.1,38.6,32.4,43.1,36.9,29.5,99,94,84,29.70,29.21,13,4,18,0.00
2013-3-17,41.2,34.2,30.6,35.6,28.7,25.7,92,81,65,29.77,29.56,20,11,25,0.00
2013-3-18,41.7,35.6,30.7,40.6,35.0,27.5,99,98,86,29.56,29.20,21,7,28,0.00
2013-3-19,42.8,31.8,24.3,28.2,20.4,15.1,90,65,38,29.73,29.47,26,11,36,0.00
2013-3-20,32.2,27.1,22.3,22.1,16.3,9.8,86,65,43,29.72,29.64,17,7,23,0.00
2013-3-21,40.1,25.9,19.9,18.6,14.6,10.5,85,65,35,29.67,29.60,12,4,17,0.00
2013-3-22,50.5,34.2,24.6,27.3,17.9,11.9,71,55,26,29.68,29.60,9,2,14,0.00
2013-3-23,30.2,30.2,30.2,20.1,20.1,20.1,66,66,66,29.70,29.54,1,1,2,0.00
2013-3-24,34.9,31.3,29.3,33.6,26.9,20.1,99,85,66,29.55,29.08,26,9,35,0.00
2013-3-25,37.0,31.7,28.0,35.3,31.1,27.8,99,98,84,29.64,29.17,20,7,26,0.00
2013-3-26,45.9,35.2,29.7,32.5,29.7,27.0,99,82,56,29.87,29.64,8,4,12,0.00
2013-3-27,46.6,35.2,27.1,32.2,28.0,23.8,97,77,44,29.95,29.86,9,4,12,0.00
2013-3-28,52.7,39.2,26.6,32.8,27.5,23.2,92,67,37,29.98,29.90,8,2,12,0.00
2013-3-29,61.5,42.4,28.4,37.8,32.3,26.5,99,73,31,29.93,29.82,8,1,15,0.00
2013-3-30,59.9,39.1,30.2,40.9,33.2,29.5,99,83,40,29.84,29.53,11,2,14,0.00
2013-3-31,64.0,50.8,43.7,49.9,43.8,35.8,99,80,44,29.54,29.36,18,7,24,0.00
2013-4-1,48.4,39.1,29.3,37.0,24.9,14.4,85,61,29,29.78,29.48,11,5,18,0.00
2013-4-2,29.5,26.0,25.5,21.7,20.6,19.3,81,80,69,29.91,29.77,3,2,5,0.00
2013-4-3,25.5,25.5,25.5,20.5,20.5,20.5,81,81,81,30.04,29.89,2,2,4,0.00
2013-4-4,25.5,24.4,0.0,20.5,20.5,20.5,81,77,81,29.93,29.60,2,2,4,0.00
2013-4-5,0.0,0.0,0.0,20.5,20.5,20.5,0,0,100,29.76,29.59,0,0,0,0.00
2013-4-6,0.0,0.0,0.0,20.5,20.5,20.5,0,0,100,29.75,29.35,0,0,0,0.00
2013-4-7,0.0,0.0,0.0,20.5,20.5,20.5,0,0,100,29.55,29.34,0,0,0,0.00
2013-4-8,0.0,0.0,0.0,20.5,20.5,20.5,0,0,100,29.57,29.39,0,0,0,0.00
2013-4-9,0.0,0.0,0.0,20.5,20.5,20.5,0,0,100,29.59,29.47,0,0,0,0.00
2013-4-10,61.3,12.5,0.0,61.1,28.2,20.5,99,23,99,29.51,29.31,16,2,22,0.00
2013-4-11,65.7,57.0,44.4,63.4,56.7,44.2,99,99,99,29.39,29.19,17,6,35,0.00
2013-4-12,45.0,41.2,37.8,44.5,37.6,33.1,99,87,74,29.54,29.23,23,12,29,0.00
2013-4-13,49.1,43.4,39.6,39.5,37.0,33.9,95,79,62,29.63,29.52,20,9,25,0.00
2013-4-14,75.7,57.1,38.8,51.1,44.8,37.7,98,69,36,29.62,29.37,14,6,20,0.05
2013-4-15,69.4,61.2,55.6,64.0,56.5,46.4,99,85,65,29.54,29.40,17,6,42,12.24
2013-4-16,62.2,50.4,47.5,58.9,49.4,47.2,99,97,79,29.82,29.49,12,5,16,0.00
2013-4-17,69.4,56.6,46.4,67.8,55.4,44.8,99,96,93,29.81,29.45,11,8,46,12.50
2013-4-18,61.9,61.9,61.9,61.6,61.6,61.6,99,99,99,29.45,29.19,3,3,4,0.02
2013-4-19,61.9,61.9,61.9,61.6,61.6,61.6,99,99,99,29.58,29.18,3,3,4,0.02
2013-4-20,61.9,0.5,0.0,61.6,61.6,61.6,99,1,99,30.03,29.57,3,0,4,0.02
2013-4-21,0.0,0.0,0.0,61.6,36.4,0.0,0,0,100,30.13,29.98,0,0,0,0.02
2013-4-22,0.0,0.0,0.0,0.0,0.0,0.0,0,0,100,29.98,29.98,0,0,0,0.02
2013-4-23,47.1,1.9,0.0,46.9,1.9,0.0,99,4,99,29.98,29.38,8,0,14,0.02
2013-4-24,51.8,42.2,37.8,43.8,38.7,33.2,99,89,55,29.76,29.38,10,5,15,0.00
2013-4-25,55.9,44.7,35.1,41.4,34.3,28.2,99,71,39,29.91,29.72,20,6,27,0.00
2013-4-26,68.9,51.6,34.3,45.0,38.7,32.5,97,66,36,29.98,29.86,13,4,17,0.00
2013-4-27,66.2,53.9,40.6,55.8,45.9,39.1,99,78,42,29.88,29.56,14,5,20,0.00
2013-4-28,61.3,56.5,53.2,61.1,56.2,52.8,99,99,97,29.56,29.40,8,3,11,0.00
2013-4-29,75.4,62.1,53.4,59.7,56.1,53.1,99,83,53,29.52,29.41,11,5,18,0.00
2013-4-30,86.0,68.9,54.3,62.9,58.4,54.0,99,74,44,29.56,29.44,17,6,23,0.00
2013-5-1,86.7,71.9,55.0,60.5,56.7,52.0,97,64,36,29.70,29.55,12,4,17,0.00
2013-5-2,84.2,70.1,59.7,60.7,57.2,52.0,94,68,36,29.70,29.58,12,5,17,0.00
2013-5-3,75.7,63.3,50.7,67.0,58.8,50.4,99,87,58,29.60,29.43,15,5,21,0.00
2013-5-4,71.2,62.1,52.5,60.0,52.5,45.4,99,73,49,29.56,29.45,15,6,21,0.00
2013-5-5,66.0,58.6,53.1,61.1,54.1,51.0,99,86,65,29.57,29.48,17,6,24,0.00
2013-5-6,72.3,61.6,51.4,57.9,53.8,48.6,95,77,58,29.54,29.46,14,5,20,0.00
2013-5-7,79.5,65.7,57.0,60.3,56.1,49.7,99,75,40,29.57,29.49,14,3,21,0.00
2013-5-8,84.6,68.8,53.1,64.4,56.1,47.4,99,69,34,29.58,29.50,9,1,12,0.00
2013-5-9,73.8,60.8,56.5,61.0,57.6,54.3,99,90,60,29.54,29.50,7,2,9,0.00
2013-5-10,71.4,58.2,45.5,65.7,57.0,45.2,99,96,75,29.50,29.39,11,5,16,0.00
2013-5-11,67.8,51.4,43.5,56.8,44.5,31.0,99,81,36,29.59,29.43,21,5,26,0.00
2013-5-12,60.1,48.7,37.2,37.6,32.1,25.1,90,57,31,29.68,29.59,11,4,17,0.00
2013-5-13,69.8,53.4,33.8,41.0,30.4,8.5,94,51,14,29.75,29.62,14,3,20,0.00
2013-5-14,85.3,68.2,50.9,62.9,51.1,38.2,78,57,43,29.64,29.33,24,10,28,0.00
2013-5-15,88.2,77.9,69.6,65.4,57.8,52.0,81,53,39,29.42,29.33,24,13,33,0.00
2013-5-16,88.5,74.5,63.9,66.9,62.3,45.9,99,71,29,29.52,29.37,17,4,21,0.00
2013-5-17,86.9,71.9,61.3,70.2,64.3,58.3,99,81,44,29.59,29.51,21,3,27,0.00
2013-5-18,81.7,69.7,59.9,71.8,65.5,59.6,99,88,59,29.62,29.51,8,2,17,0.00
2013-5-19,90.0,75.7,61.2,73.2,66.6,60.9,99,77,46,29.53,29.37,13,3,19,0.00
2013-5-20,87.4,77.9,71.4,74.0,70.7,67.6,99,81,56,29.46,29.33,23,9,30,0.00
2013-5-21,86.9,74.3,63.1,71.5,66.2,61.7,99,79,46,29.41,29.28,33,11,45,0.00
2013-5-22,78.8,70.0,63.7,69.1,64.2,57.5,99,84,57,29.34,29.24,26,8,35,0.00
2013-5-23,67.6,57.2,44.6,61.9,53.8,34.1,99,88,66,29.75,29.34,11,6,16,0.00
2013-5-24,71.1,53.7,37.4,45.2,39.5,32.0,99,65,29,29.93,29.74,10,3,16,0.00
2013-5-25,64.6,53.9,40.8,49.7,42.1,32.4,94,68,34,29.95,29.77,9,2,13,0.00
2013-5-26,69.6,58.7,46.4,58.7,50.5,42.6,99,77,46,29.87,29.68,12,4,17,0.00
2013-5-27,80.1,65.1,57.7,71.4,63.1,57.5,99,94,70,29.70,29.40,21,6,30,0.00
2013-5-28,83.7,72.4,62.6,72.8,67.8,62.3,99,87,64,29.49,29.39,25,10,34,0.00
2013-5-29,87.8,77.1,69.4,70.1,65.5,58.1,90,70,43,29.55,29.45,24,10,31,0.00
2013-5-30,88.5,77.4,69.3,74.2,68.7,65.9,94,76,53,29.57,29.44,27,8,35,0.00
2013-5-31,79.2,71.9,64.2,75.2,70.0,63.9,99,94,80,29.53,29.36,30,7,39,0.00
2013-6-1,74.8,68.4,59.4,73.5,66.7,59.1,99,95,81,29.44,29.30,27,9,35,0.00
2013-6-2,71.4,62.2,53.8,66.6,60.8,51.8,99,95,80,29.57,29.34,12,6,17,0.00
2013-6-3,71.4,59.2,46.8,53.0,48.8,43.1,99,72,44,29.66,29.56,10,4,14,0.00
2013-6-4,78.3,65.0,50.0,55.2,50.4,44.7,99,64,35,29.70,29.60,13,5,17,0.00
2013-6-5,80.4,64.8,55.9,59.5,55.7,52.7,95,75,43,29.62,29.42,10,4,14,0.00
2013-6-6,79.9,68.9,60.1,62.0,56.3,51.3,80,66,50,29.44,29.34,11,5,16,0.00
2013-6-7,73.2,65.9,59.0,65.1,59.7,53.5,99,82,62,29.45,29.38,10,3,14,0.00
2013-6-8,84.2,69.7,54.3,62.7,55.6,49.2,99,66,36,29.55,29.44,14,2,17,0.00
2013-6-9,86.4,73.4,64.2,68.4,62.6,53.8,99,74,36,29.56,29.39,14,3,19,0.00
2013-6-10,78.4,71.1,64.0,69.4,65.9,62.3,99,85,61,29.42,29.31,14,6,21,0.00
2013-6-11,87.4,76.1,64.4,71.1,65.9,62.2,96,73,47,29.53,29.41,14,4,19,0.00
2013-6-12,91.6,82.2,72.0,78.6,74.1,70.9,99,79,57,29.48,29.17,111,9,111,0.00
2013-6-13,84.2,71.2,61.0,75.9,64.4,54.1,99,82,46,29.57,29.17,19,4,27,0.00
2013-6-14,85.8,69.3,54.3,65.4,59.0,54.0,99,74,39,29.65,29.52,8,2,13,0.00
2013-6-15,84.9,72.4,60.8,68.6,63.8,60.0,99,78,48,29.64,29.47,17,5,23,0.00
2013-6-16,82.2,73.5,67.3,72.4,69.4,65.7,99,88,69,29.54,29.46,21,8,29,0.00
2013-6-17,90.9,77.8,66.7,78.6,67.5,58.9,99,76,38,29.52,29.43,8,2,17,0.00
2013-6-18,86.9,75.6,64.6,71.2,65.2,58.8,99,74,45,29.55,29.44,15,5,20,0.00
2013-6-19,108.3,73.3,-20.2,85.8,62.3,-30.1,99,72,23,29.67,29.54,98,7,100,0.00
2013-6-20,88.3,75.9,21.9,67.5,63.3,2.9,98,68,44,29.73,29.65,9,3,13,0.00
2013-6-21,91.9,77.0,66.7,70.9,67.1,63.1,99,76,43,29.72,29.53,11,4,17,0.00
2013-6-22,87.1,75.7,67.5,77.1,70.8,66.0,99,86,55,29.67,29.55,15,5,24,0.00
2013-6-23,87.1,76.0,64.0,76.0,68.7,63.4,99,81,53,29.66,29.56,17,6,24,0.00
2013-6-24,94.8,75.9,47.8,76.8,71.0,66.7,99,83,58,29.67,29.50,15,5,19,0.00
2013-6-25,91.8,73.8,-20.6,77.9,67.3,-26.6,99,84,53,29.56,29.41,18,8,28,0.76
2013-6-26,85.8,74.8,67.5,78.2,72.1,67.2,99,92,72,29.48,29.29,14,5,18,0.00
2013-6-27,92.3,79.6,68.9,77.1,72.0,66.8,99,80,54,29.36,29.26,9,3,15,0.00
2013-6-28,87.4,75.4,65.3,71.9,66.0,59.2,99,76,46,29.29,29.16,12,4,18,0.00
2013-6-29,77.5,68.2,63.5,77.2,67.1,63.2,99,96,80,29.26,29.14,7,2,27,0.00
2013-6-30,74.5,68.1,63.9,70.1,65.7,61.4,99,93,72,29.45,29.25,14,6,23,0.00
2013-7-1,78.1,69.0,64.6,69.3,65.0,62.7,99,88,69,29.53,29.43,17,7,23,0.00
2013-7-2,72.3,65.7,61.2,68.6,64.8,60.9,99,97,86,29.57,29.50,9,5,16,0.00
2013-7-3,79.9,69.1,20.5,72.3,66.6,62.7,99,89,68,29.65,29.54,10,3,63,0.00
2013-7-4,80.4,70.2,56.3,70.9,63.6,56.0,99,82,52,29.69,29.61,7,2,10,0.00
2013-7-5,88.2,74.5,64.4,74.5,68.4,64.1,99,84,52,29.67,29.59,6,1,10,0.00
2013-7-6,72.7,70.3,65.8,72.4,70.0,65.5,99,99,99,29.65,29.58,98,2,98,0.00
2013-7-7,85.1,73.1,-39.8,76.7,70.4,64.5,99,91,68,29.65,29.55,147,4,147,0.00
2013-7-8,86.5,73.6,-39.6,78.3,71.0,-40.9,99,92,73,29.66,29.56,14,7,21,6.05
2013-7-9,90.5,67.4,-11.4,80.9,64.2,-11.6,99,91,66,29.60,29.49,13,6,25,0.07
2013-7-10,86.4,71.7,-18.8,80.7,69.5,-21.9,99,93,70,29.57,29.39,40,6,52,0.07
2013-7-11,80.1,72.5,32.7,76.0,65.3,18.9,99,81,53,29.63,29.53,53,4,53,0.00
2013-7-12,82.8,70.0,54.7,65.2,61.0,54.4,99,76,51,29.69,29.61,8,3,12,0.00
2013-7-13,84.7,76.1,57.9,69.2,64.6,53.7,99,70,54,29.70,29.63,11,5,15,0.19
2013-7-14,110.1,84.3,65.8,77.3,71.0,53.7,99,79,54,29.75,29.67,6,4,103,0.19
2013-7-15,110.1,97.7,81.7,78.8,76.9,75.7,91,71,64,29.84,29.74,5,4,103,0.19
2013-7-16,92.7,72.8,68.0,78.2,69.9,67.7,99,92,64,29.90,29.82,2,0,4,0.00
2013-7-17,69.4,68.9,68.2,69.0,68.6,67.9,99,99,99,29.90,29.75,0,0,0,0.00
2013-7-18,95.9,78.7,69.1,80.0,72.7,68.8,99,85,54,29.77,29.58,7,2,10,0.00
2013-7-19,92.5,82.2,3.0,80.2,77.0,73.1,99,84,61,29.59,29.40,17,8,115,0.00
2013-7-20,81.1,75.5,69.1,78.1,74.4,68.8,99,96,85,29.49,29.38,14,5,101,0.76
2013-7-21,86.0,74.5,64.0,77.7,72.1,63.8,99,93,74,29.54,29.42,6,1,49,0.01
2013-7-22,87.4,75.0,67.8,75.0,71.6,67.5,99,91,62,29.45,29.34,25,2,25,0.00
2013-7-23,86.7,76.2,63.9,77.4,71.0,59.5,99,85,64,29.47,29.29,10,4,16,3.02
2013-7-24,76.8,65.5,58.1,60.5,57.7,55.2,99,78,53,29.58,29.46,10,4,16,0.00
2013-7-25,77.7,66.8,51.4,63.8,59.9,51.2,99,82,59,29.67,29.57,4,1,6,0.00
2013-7-26,79.0,68.2,55.8,68.6,63.4,54.9,99,86,63,29.65,29.47,53,3,53,0.00
2013-7-27,77.0,68.6,55.6,67.3,61.7,52.5,99,81,52,29.51,29.42,15,4,18,0.00
2013-7-28,72.9,62.3,50.4,58.2,53.9,50.1,99,77,51,29.59,29.48,25,6,39,0.00
2013-7-29,82.2,65.5,50.9,62.2,57.3,50.6,99,79,40,29.72,29.59,97,4,12,0.00
2013-7-30,73.6,65.5,54.1,71.2,63.8,53.9,99,95,77,29.75,29.62,5,2,8,0.00
2013-7-31,78.1,69.8,64.8,76.5,69.2,64.5,99,98,90,29.64,29.49,8,2,12,0.00
2013-8-1,84.0,71.3,60.8,73.3,63.6,57.4,99,80,47,29.57,29.50,9,2,15,0.00
2013-8-2,82.4,69.5,57.2,72.8,64.9,56.9,99,87,66,29.54,29.47,18,6,25,0.00
2013-8-3,87.1,73.8,61.5,74.4,66.5,56.9,99,81,53,29.65,29.49,12,2,17,0.00
2013-8-4,84.6,69.4,60.8,66.3,58.9,53.6,99,73,39,29.74,29.64,4,1,9,0.00
2013-8-5,81.7,67.1,20.8,68.9,62.1,20.6,99,86,54,29.68,29.47,11,2,14,0.00
2013-8-6,85.8,72.5,66.9,77.0,70.8,66.6,99,95,70,29.50,29.44,7,2,10,0.00
2013-8-7,85.5,76.3,68.9,80.9,75.1,68.6,99,96,79,29.48,29.40,12,4,17,0.00
2013-8-8,77.4,72.4,69.1,77.1,72.1,68.8,99,99,99,29.52,29.45,7,2,11,0.00
2013-8-9,87.3,73.5,61.3,72.6,67.6,61.1,99,85,46,29.59,29.49,5,1,8,0.00
2013-8-10,88.3,75.2,63.1,74.4,68.5,62.9,99,82,59,29.66,29.58,4,1,7,0.00
2013-8-11,88.3,72.4,57.2,73.8,65.9,56.9,99,84,53,29.67,29.60,4,1,7,0.00
2013-8-12,83.5,72.7,62.8,74.3,68.6,62.5,99,88,66,29.64,29.44,97,3,97,0.00
2013-8-13,77.2,67.7,55.2,71.3,61.0,50.6,99,82,52,29.67,29.43,10,3,15,0.00
2013-8-14,75.2,60.0,44.2,56.5,50.4,31.7,99,77,31,29.77,29.67,9,2,19,0.00
2013-8-15,76.5,60.2,0.3,61.9,52.7,-3.0,99,81,48,29.74,29.65,12,1,8,0.00
2013-8-16,79.2,67.9,56.7,63.2,58.5,56.4,99,76,52,29.72,29.66,7,3,10,0.00
2013-8-17,82.9,68.5,57.2,63.5,60.2,56.9,99,79,49,29.77,29.69,8,4,13,0.00
2013-8-18,87.4,72.5,64.4,71.4,66.2,63.5,99,83,51,29.74,29.65,4,1,6,0.00
2013-8-19,88.7,73.1,56.5,73.1,65.6,56.2,99,81,50,29.70,29.61,5,1,7,0.00
2013-8-20,91.9,74.7,59.4,75.3,66.9,59.1,99,81,46,29.71,29.61,7,1,9,0.00
2013-8-21,90.7,75.6,63.0,76.8,69.5,62.7,99,85,52,29.70,29.58,8,2,12,0.00
2013-8-22,82.2,72.5,67.3,75.9,70.9,67.0,99,95,74,29.66,29.61,8,2,11,0.00
2013-9-15,80.2,69.5,58.8,63.8,55.6,49.6,99,65,38,29.65,29.54,18,7,18,0.00
2013-9-16,67.8,61.1,43.2,60.9,57.4,41.8,99,89,66,29.85,29.64,14,6,14,0.19
2013-9-17,78.6,63.6,48.6,56.6,52.1,48.3,99,72,40,29.87,29.70,13,8,13,0.00
2013-9-18,87.4,77.7,69.6,70.6,60.1,53.0,99,56,43,29.70,29.55,15,9,15,0.00
2013-9-19,87.6,75.0,65.3,76.2,71.1,65.0,99,89,64,29.63,29.44,20,9,20,0.00
2013-9-20,77.0,72.1,63.1,75.7,71.1,62.9,99,97,78,29.47,29.36,20,9,20,0.00
2013-9-21,75.9,65.1,51.6,62.7,53.2,47.3,99,70,37,29.47,29.34,11,5,11,0.00
2013-9-22,73.4,57.5,41.9,56.2,49.1,41.6,99,77,41,29.58,29.47,13,3,14,0.00
2013-9-23,75.9,58.9,41.0,54.4,48.4,-11.3,99,73,10,29.65,29.57,14,4,14,0.00
2013-9-24,81.0,61.8,45.3,58.8,53.1,45.1,99,77,42,29.61,29.44,15,6,15,0.00
2013-9-25,83.5,65.9,52.7,62.2,55.9,51.6,99,73,43,29.50,29.42,14,5,14,0.00
2013-9-26,83.5,64.4,48.7,61.6,53.5,46.8,99,73,29,29.62,29.49,12,4,12,0.00
2013-9-27,87.4,67.1,50.0,60.5,51.3,43.4,99,64,23,29.72,29.62,13,3,13,0.00
2013-9-28,86.2,67.4,51.3,63.1,56.9,49.5,99,73,37,29.69,29.55,21,5,21,0.00
2013-9-29,77.0,65.0,53.8,66.7,59.6,53.5,99,84,50,29.57,29.51,14,5,14,0.00
2013-9-30,77.0,64.2,53.1,64.4,59.8,52.8,99,88,55,29.57,29.47,16,4,16,0.00
2013-10-1,81.7,67.6,59.7,67.9,64.7,59.5,99,92,61,29.60,29.51,16,6,16,0.00
2013-10-2,81.1,69.8,61.7,75.0,67.8,61.4,99,94,67,29.65,29.56,11,3,11,0.00
2013-10-3,86.0,73.5,66.0,73.2,67.9,65.5,99,85,54,29.58,29.46,25,8,25,0.00
2013-10-4,87.3,73.4,65.1,74.7,69.6,64.9,99,89,57,29.59,29.51,19,6,19,0.00
2013-10-5,82.9,72.4,66.6,78.4,71.2,66.3,99,96,70,29.56,29.39,21,8,24,0.00
2013-10-6,66.9,59.2,47.7,66.7,54.2,40.7,99,85,52,29.42,29.28,21,8,21,0.00
2013-10-7,71.4,53.3,45.0,53.4,47.6,43.4,99,84,42,29.68,29.36,18,6,18,0.01
2013-10-8,78.3,59.5,46.6,57.6,49.9,46.3,99,75,38,29.79,29.68,11,4,11,0.00
2013-10-9,77.5,57.6,42.1,55.3,48.2,41.8,99,76,36,29.79,29.68,14,3,14,0.00
2013-10-10,49.6,48.2,46.8,49.4,47.9,46.5,99,99,96,29.70,29.68,1,0,1,0.00
2013-10-14,72.5,53.6,37.0,51.2,43.7,36.7,99,74,33,29.92,29.71,11,4,11,0.00
2013-10-15,72.3,59.3,48.0,72.0,58.3,45.9,99,96,79,29.71,29.42,20,8,20,0.00
2013-10-16,63.9,53.4,42.8,63.6,49.0,42.3,99,86,63,29.54,29.44,19,7,19,0.00
2013-10-17,55.8,46.3,38.8,50.5,44.4,38.6,99,94,64,29.53,29.44,24,6,24,0.00
2013-10-18,66.7,50.1,41.0,50.0,44.9,40.7,99,85,50,29.55,29.47,21,8,21,0.00
2013-10-19,56.7,46.3,38.8,47.7,40.8,35.9,99,83,46,29.54,29.42,22,7,22,0.00
2013-10-20,66.4,52.4,39.2,47.7,42.7,38.5,99,72,46,29.51,29.42,32,15,32,0.00
2013-10-21,54.7,48.4,34.3,50.3,42.9,28.8,96,82,66,29.57,29.44,24,9,24,0.00
2013-10-22,50.7,38.0,25.2,40.9,32.7,24.6,99,83,48,29.58,29.40,19,6,19,0.00
2013-10-23,50.0,39.8,33.1,40.6,35.3,32.7,99,85,62,29.61,29.39,18,6,19,0.00
2013-10-24,43.3,38.4,33.1,39.3,33.8,27.0,99,85,57,29.85,29.59,13,5,13,0.00
2013-10-25,52.0,38.9,28.0,34.8,29.8,27.1,98,72,43,30.00,29.77,18,7,18,0.00
2013-10-26,59.2,44.5,35.1,42.7,33.4,28.2,79,66,44,29.77,29.45,34,14,34,0.00
2013-10-27,58.6,41.7,26.8,43.3,31.5,26.6,99,72,35,29.66,29.57,17,4,17,0.00
2013-10-28,65.3,45.7,27.7,45.6,33.3,27.0,99,68,28,29.85,29.62,8,2,10,0.00
2013-10-29,59.9,47.3,34.7,50.3,41.7,32.8,99,82,57,29.89,29.72,11,5,11,0.00
2013-10-30,68.0,57.6,49.5,67.7,57.3,49.2,99,99,99,29.72,29.47,17,6,17,0.00
2013-10-31,73.0,61.5,51.3,72.8,61.3,51.0,99,99,99,29.47,28.86,36,17,36,0.00
2013-11-1,57.0,49.2,15.1,51.9,46.8,-18.6,99,92,20,29.33,28.98,29,13,29,0.00
2013-11-2,55.4,45.8,12.4,47.8,43.0,9.6,99,90,64,29.69,29.32,29,5,29,0.00
2013-11-3,57.7,43.3,29.1,50.6,38.0,-12.3,99,84,49,29.87,29.68,11,4,11,0.00
2013-11-4,59.4,48.3,40.5,44.8,41.5,37.5,97,78,55,29.87,29.76,21,8,21,0.00
2013-11-5,58.5,52.6,44.4,52.8,47.6,42.8,99,84,67,29.89,29.62,17,7,17,0.00
2013-11-6,59.2,51.5,38.7,58.9,49.3,0.6,99,93,10,29.69,29.43,117,15,117,0.00
2013-11-7,50.0,35.0,0.0,38.8,34.2,29.9,99,72,48,29.84,29.68,19,6,19,0.00
2013-11-8,113.4,41.4,27.3,98.9,33.0,27.1,99,75,43,29.91,29.66,17,6,17,0.00
2013-11-9,62.8,51.4,42.1,44.5,38.5,30.7,72,62,48,29.67,29.52,32,16,32,0.00
2013-11-10,76.5,45.2,30.9,39.7,34.1,0.7,99,69,10,29.91,29.67,13,7,13,0.00
2013-11-11,50.9,41.1,30.9,44.5,36.5,30.7,99,85,57,29.93,29.64,27,11,29,0.00
2013-11-12,36.0,29.4,22.8,31.8,27.5,21.4,99,93,75,30.19,29.93,12,5,13,0.00
2013-11-13,39.6,28.4,16.7,25.2,21.7,16.0,99,78,49,30.17,29.84,21,10,21,0.00
2013-11-14,53.4,38.9,30.7,28.3,24.2,19.6,74,58,27,29.84,29.61,29,17,29,0.00
2013-11-15,56.7,45.1,40.1,39.4,30.7,25.0,93,58,38,29.63,29.55,23,10,23,0.00
2013-11-16,66.6,53.6,39.9,62.2,51.6,38.8,99,93,66,29.57,29.27,33,13,33,0.00
2013-11-17,68.7,62.4,55.4,67.2,62.2,55.1,99,99,96,29.30,28.86,69,19,69,0.00
2013-11-23,30.6,25.6,17.2,29.1,20.5,11.0,99,81,59,30.18,29.95,17,7,27,0.00
2013-11-24,31.8,19.8,11.8,16.8,10.8,7.5,85,69,38,30.25,30.01,11,4,11,0.00
2013-11-25,33.4,28.0,17.4,23.9,18.4,12.1,83,67,54,30.02,29.70,24,12,24,0.00
2013-11-26,40.3,32.9,27.9,30.8,27.6,24.4,98,81,65,29.73,29.52,13,6,13,0.00
2013-11-27,31.3,21.7,15.6,27.3,14.2,10.3,97,73,50,29.83,29.59,16,7,16,0.00
2013-11-28,37.4,27.5,18.1,20.9,17.1,13.1,87,67,44,30.00,29.75,24,10,24,0.00
2013-11-29,39.4,28.0,13.8,26.4,20.6,11.7,98,75,52,30.16,29.99,37,5,37,0.00
2013-11-30,53.1,39.2,27.5,41.0,27.3,23.7,90,65,36,29.99,29.66,23,10,23,0.00
2013-12-1,53.2,39.9,28.8,39.3,33.1,26.7,97,78,51,29.66,29.51,11,5,11,0.00
2013-12-2,45.9,38.1,31.3,41.6,36.4,31.0,99,94,74,29.52,29.31,16,8,16,0.00
2013-12-3,53.2,44.3,37.2,53.0,44.1,37.0,99,99,99,29.34,29.27,15,8,15,0.00
2013-12-4,61.5,53.0,41.2,61.3,52.7,40.9,99,99,93,29.33,29.14,24,9,27,0.00
2013-12-5,58.1,34.3,25.0,56.1,31.2,18.8,99,88,77,29.78,29.26,24,9,24,0.00
2013-12-6,27.5,24.1,15.6,21.0,18.7,12.2,87,80,75,30.01,29.74,11,6,11,0.00
2013-12-7,29.5,18.4,9.7,16.1,11.3,7.4,90,74,47,30.19,30.00,12,4,12,0.00
2013-12-8,28.8,24.6,17.4,28.5,21.9,14.2,99,89,73,30.06,29.52,24,12,24,0.00
2013-12-9,28.8,24.1,17.6,28.5,20.4,9.5,99,86,67,29.78,29.52,25,12,25,0.00
2013-12-10,30.2,18.6,2.7,15.5,10.4,-1.2,88,71,50,29.86,29.67,39,11,39,0.00
2013-12-11,30.4,18.1,5.5,23.7,13.6,0.2,97,83,69,30.10,29.82,16,6,16,0.00
2013-12-12,26.8,12.9,0.0,8.9,2.1,-3.7,85,64,32,30.10,29.82,24,11,26,0.00
2013-12-13,41.0,27.7,16.2,31.4,18.9,7.7,99,71,45,29.82,29.62,23,9,23,0.00
2013-12-14,34.3,31.1,26.8,34.1,30.8,26.6,99,99,99,29.64,29.31,14,7,14,0.00
2013-12-15,29.3,20.4,14.2,28.3,18.6,12.3,99,93,82,29.65,29.50,27,13,27,0.00
2013-12-16,27.5,20.3,15.3,27.3,19.9,15.1,99,98,89,29.66,29.54,14,7,14,0.00
2013-12-17,27.7,23.2,18.3,27.5,22.7,17.9,99,98,85,29.69,29.56,24,11,24,0.00
2013-12-18,38.5,25.5,6.6,28.0,17.8,4.7,99,74,52,29.77,29.48,30,10,30,0.00
2013-12-19,44.4,40.5,36.9,43.6,36.9,27.8,99,87,66,29.53,29.38,119,12,119,0.00
2013-12-20,58.8,51.5,41.2,58.6,51.3,40.7,99,99,99,29.39,29.27,27,13,27,0.00
2013-12-21,42.1,36.5,31.5,41.8,36.3,31.2,99,99,99,29.38,28.98,23,8,24,0.00
2013-12-22,41.0,35.4,30.6,40.7,35.1,30.1,99,99,99,29.65,28.96,30,12,30,0.00
2013-12-23,30.6,23.8,11.8,30.3,21.2,6.9,99,90,75,29.99,29.65,20,10,20,0.00
2013-12-24,21.6,12.5,4.5,14.5,7.0,0.0,89,78,62,30.11,29.95,17,7,17,0.00
2013-12-25,30.9,25.5,19.8,30.7,19.6,13.5,99,78,69,29.97,29.69,21,12,21,0.00
2013-12-26,37.6,30.7,21.2,30.9,24.5,16.3,99,78,60,29.90,29.69,24,12,24,0.00
2013-12-27,74.3,36.6,26.6,37.5,31.3,14.3,99,82,10,29.90,29.74,101,11,101,0.00
2013-12-28,50.9,43.9,33.8,37.7,35.5,32.1,96,74,59,29.75,29.48,22,13,22,0.00
2013-12-29,43.2,34.2,24.3,34.9,31.0,22.6,99,89,71,29.65,29.36,107,9,107,0.24
2013-12-30,24.6,19.1,15.4,22.8,14.8,11.3,98,83,66,29.85,29.65,16,6,16,0.00
2013-12-31,30.2,22.6,15.1,23.5,17.5,11.6,97,81,64,29.91,29.71,16,7,16,0.00
2014-1-1,36.5,27.4,21.7,31.7,25.9,21.0,99,94,80,29.79,29.59,17,8,17,0.00
2014-1-2,21.7,15.7,7.7,21.5,14.1,1.9,99,93,75,29.90,29.51,23,9,23,0.00